Content
SEND FEEDBACK

Daily
Averages
Monthly
Summary
Turkey

ADIYAMAN, TURKEY


Home > Middle East > Turkey
Elevation: 2224 feet     Latitude: 37 48N     Longitude: 038 18E

WEATHER
 
SELECT A DAY
Number of Records: 143,240;   Date Range: 7/1/96 - 10/23/14
 
SHARE

PRINT THIS DATA

[ ← Previous Day ]
WEATHER ALMANAC - JANUARY 20, 2013
[ Next Day → ]
[ °C ]   °F
Weather ElementAverageHighLow
Temperature34 °F39.2 °F (1:20 pm)24.8 °F (10:50 pm)
Dewpoint31.5 °F35.6 °F (8:50 am)24.8 °F (10:50 pm)
Humidity91.1 %100 % (3:20 am)75 % (12:50 am)
Barometer30.09 in30.18 in (10:20 pm)29.98 in (12:50 am)
Wind Speed5.4 mph9.2 mph (1:50 am)
Weather ElementAverage
Visibility5.4 mi
Wind DirectionSSW (211.9 °)

Weather ElementTotal
Precipitation---
Heating Degree Days33 (Base 65)
Averaged from 47 records on January 20, 2013
WEATHER CONDITIONS BREAKOUT
WIND DIRECTION BREAKOUT
WEATHER BY HOUR - JANUARY 20, 2013
[ °C ]   °F
Local TimeTemperatureDewpointHumidityBarometerVisibilityWind DirectionWind SpeedGust SpeedPrecipitationEventsConditions
12:50 AM35.6 °F28.4 °F75 %29.98 in6.2 miNW (320°)6.9 mphOvercast
1:20 AM35.6 °F32.0 °F87 %30.01 in6.2 miNW (310°)6.9 mphOvercast
1:50 AM35.6 °F32.0 °F87 %30.01 in6.2 miNNW (340°)9.2 mphOvercast
2:20 AM33.8 °F32.0 °F93 %30.01 in6.2 miNorth (10°)6.9 mphOvercast
2:50 AM35.6 °F33.8 °F93 %30.01 in6.2 miNorth (350°)8.1 mphOvercast
3:20 AM33.8 °F33.8 °F100 %30.01 in6.2 miNNE (30°)4.6 mphOvercast
3:50 AM33.8 °F33.8 °F100 %30.01 in3.7 miESE (120°)3.5 mphOvercast
4:20 AM32.0 °F32.0 °F100 %30.01 in3.7 miSSW (210°)5.8 mphOvercast
4:50 AM32.0 °F32.0 °F100 %30.04 in3.7 miSW (220°)8.1 mphMostly Cloudy
5:20 AM33.8 °F33.8 °F100 %30.04 in3.7 miSW (230°)8.1 mphMostly Cloudy
5:50 AM33.8 °F33.8 °F100 %30.04 in3.7 miSSW (210°)5.8 mphMostly Cloudy
6:20 AM33.8 °F33.8 °F100 %30.06 in3.7 miWSW (250°)5.8 mphMostly Cloudy
6:50 AM33.8 °F33.8 °F100 %30.06 in3.7 miSSW (210°)4.6 mphMostly Cloudy
7:20 AM33.8 °F33.8 °F100 %30.06 in3.7 miSouth (180°)4.6 mphMostly Cloudy
7:50 AM35.6 °F33.8 °F93 %30.06 in3.7 miSE (130°)3.5 mphMostly Cloudy
8:20 AM33.8 °F33.8 °F100 %30.09 in6.2 miSouth (190°)4.6 mphMostly Cloudy
8:50 AM35.6 °F35.6 °F100 %30.12 in5.0 miSW (230°)4.6 mphOvercast
9:20 AM35.6 °F33.8 °F93 %30.12 in5.0 miSW (230°)6.9 mphMostly Cloudy
9:50 AM35.6 °F33.8 °F93 %30.12 in5.0 miSW (220°)9.2 mphOvercast
10:20 AM37.4 °F33.8 °F87 %30.12 in5.0 miSW (230°)9.2 mphOvercast
10:50 AM37.4 °F32.0 °F81 %30.12 in5.0 miSW (220°)8.1 mphOvercast
11:20 AM37.4 °F32.0 °F81 %30.09 in5.0 miSSW (200°)6.9 mphOvercast
11:50 AM37.4 °F32.0 °F81 %30.09 in5.0 miSSW (210°)8.1 mphOvercast
12:20 PM37.4 °F32.0 °F81 %30.09 in5.0 miSW (220°)5.8 mphOvercast
12:50 PM37.4 °F32.0 °F81 %30.09 in6.2 miSSW (210°)5.8 mphOvercast
1:20 PM39.2 °F32.0 °F75 %30.09 in5.0 miSW (230°)4.6 mphOvercast
1:50 PM39.2 °F32.0 °F75 %30.09 in6.2 miSSW (210°)3.5 mphOvercast
2:20 PM39.2 °F32.0 °F75 %30.09 in6.2 miSSW (210°)4.6 mphOvercast
2:50 PM39.2 °F32.0 °F75 %30.09 in6.2 miSouth (190°)2.3 mphOvercast
3:20 PM39.2 °F32.0 °F75 %30.09 in6.2 miSSW (200°)3.5 mphOvercast
3:50 PM37.4 °F32.0 °F81 %30.09 in6.2 miSSW (210°)4.6 mphMostly Cloudy
4:20 PM37.4 °F32.0 °F81 %30.09 in6.2 miSouth (190°)3.5 mphMostly Cloudy
4:50 PM35.6 °F32.0 °F87 %30.09 in5.0 miSouth (170°)2.3 mphMostly Cloudy
5:20 PM32.0 °F28.4 °F87 %30.12 in5.0 miSSW (210°)2.3 mphMostly Cloudy
5:50 PM33.8 °F30.2 °F87 %30.12 in6.2 miWSW (250°)6.9 mphMostly Cloudy
6:20 PM32.0 °F30.2 °F93 %30.12 in6.2 miWest (260°)4.6 mphMostly Cloudy
6:50 PM30.2 °F30.2 °F100 %30.15 in5.0 miSW (220°)4.6 mphMostly Cloudy
7:20 PM30.2 °F30.2 °F100 %30.15 in5.0 miSSW (210°)5.8 mphMostly Cloudy
7:50 PM28.4 °F28.4 °F100 %30.15 in6.2 miSSW (210°)4.6 mphMostly Cloudy
8:20 PM28.4 °F28.4 °F100 %30.15 in6.2 miSSW (200°)4.6 mphMostly Cloudy
8:50 PM28.4 °F28.4 °F100 %30.15 in6.2 miSSE (160°)3.5 mphMostly Cloudy
9:20 PM30.2 °F30.2 °F100 %30.15 in6.2 miSW (230°)3.5 mphMostly Cloudy
9:50 PM30.2 °F28.4 °F93 %30.15 in6.2 miSW (230°)4.6 mphMostly Cloudy
10:20 PM26.6 °F26.6 °F100 %30.18 in6.2 miSW (220°)4.6 mphMostly Cloudy
10:50 PM24.8 °F24.8 °F100 %30.18 in6.2 miSW (230°)4.6 mphMostly Cloudy
11:20 PM28.4 °F26.6 °F93 %30.18 in6.2 miSSW (210°)5.8 mphMostly Cloudy
11:50 PM28.4 °F28.4 °F100 %30.18 in6.2 miSW (230°)3.5 mphMostly Cloudy
Hourly data recorded from LTCP, located miles away from Adiyaman, Turkey







STORIES FROM OUR PARTNERS